Weather History for Lincolnton, NC

Change the Weather History Date:

Monday, February 18, 2013

  Actual Average (KCLT) Record (KCLT)
Temperature  
Mean Temperature 36 °F 44 °F  
Max Temperature 53 °F 56 °F 78 °F (1891)
Min Temperature 19 °F 33 °F 5 °F (1958)
Degree Days  
Heating Degree Days 29 21  
Month to date heating degree days 400  
Since 1 July heating degree days 2507  
Cooling Degree Days 0 0  
Month to date cooling degree days 0  
Year to date cooling degree days 0  
Moisture  
Dew Point 19 °F    
Average Humidity 54    
Maximum Humidity 93    
Minimum Humidity 26    
Precipitation  
Precipitation 0.00 in 0.12 in 1.89 in (1883)
Month to date precipitation 2.03  
Year to date precipitation 5.44  
Snow  
Snow 0.00 in 0.10 in 10.00 in (1979)
Month to date snowfall 0.8  
Since 1 July snowfall 3.3  
Snow Depth -    
Sea Level Pressure  
Sea Level Pressure 30.28 in    
Wind  
Wind Speed 2 mph (SSW)    
Max Wind Speed 9 mph    
Max Gust Speed -    
Visibility 10 miles    
Events      
T = Trace of Precipitation, MM = Missing Value Source: NWS Daily Summary

Daily Weather History Graph

Daily Weather History Graph

Search for Another Location

Airport:

Trip Planner

Search our weather history database for the weather conditions in past years. The results will help you decide how hot, cold, wet, or windy it might be!

Date:

Astronomy

Feb. 18, 2013 Rise Set
Actual Time 7:07 AM EST 6:09 PM EST
Civil Twilight 6:41 AM EST 6:35 PM EST
Nautical Twilight 6:11 AM EST 7:05 PM EST
Astronomical Twilight 5:42 AM EST 7:35 PM EST
Moon 12:00 PM EST (2/18) 1:40 AM EST (2/18)
Length of Visible Light 11h 54m
Length of Day
11h 02m
First Quarter, 58% of the Moon is Illuminated
Feb 18
First Quarter
Feb 25
Full
Mar 4
Last Quarter
Mar 11
New
Mar 19
First Quarter

Hourly Weather History & Observations

Time (EST) Temp. Windchill Dew Point Humidity Pressure Visibility Wind Dir Wind Speed Gust Speed Precip Events Conditions
12:15 AM 23.0 °F - 14.0 °F 68% 30.25 in 10.0 mi Calm Calm - N/A   Clear
12:35 AM 23.0 °F 17.0 °F 15.8 °F 74% 30.25 in 10.0 mi West 4.6 mph - N/A   Clear
12:55 AM 23.0 °F - 15.8 °F 74% 30.25 in 10.0 mi Calm Calm - N/A   Clear
1:15 AM 23.0 °F 18.4 °F 14.0 °F 68% 30.26 in 10.0 mi WSW 3.5 mph - N/A   Clear
1:35 AM 24.8 °F - 15.8 °F 69% 30.26 in 10.0 mi Calm Calm - N/A   Clear
1:55 AM 21.2 °F - 17.6 °F 86% 30.27 in 10.0 mi Calm Calm - N/A   Clear
2:15 AM 23.0 °F - 15.8 °F 74% 30.28 in 10.0 mi Calm Calm - N/A   Clear
2:35 AM 21.2 °F - 17.6 °F 86% 30.28 in 10.0 mi Calm Calm - N/A   Clear
2:55 AM 21.2 °F - 17.6 °F 86% 30.28 in 10.0 mi Calm Calm - N/A   Clear
3:15 AM 21.2 °F - 15.8 °F 80% 30.28 in 10.0 mi Calm Calm - N/A   Clear
3:35 AM 21.2 °F - 17.6 °F 86% 30.28 in 10.0 mi Calm Calm - N/A   Clear
3:55 AM 19.4 °F - 15.8 °F 86% 30.28 in 10.0 mi Calm Calm - N/A   Clear
4:15 AM 21.2 °F - 17.6 °F 86% 30.30 in 10.0 mi Calm Calm - N/A   Clear
4:35 AM 19.4 °F - 17.6 °F 93% 30.30 in 10.0 mi Calm Calm - N/A   Clear
4:55 AM 21.2 °F - 17.6 °F 86% 30.31 in 10.0 mi Calm Calm - N/A   Clear
5:15 AM 21.2 °F - 19.4 °F 93% 30.31 in 10.0 mi Calm Calm - N/A   Clear
5:35 AM 19.4 °F - 17.6 °F 93% 30.32 in 10.0 mi Calm Calm - N/A   Clear
5:55 AM 19.4 °F - 17.6 °F 93% 30.32 in 10.0 mi Calm Calm - N/A   Clear
6:15 AM 19.4 °F - 15.8 °F 86% 30.33 in 10.0 mi Calm Calm - N/A   Clear
6:35 AM 19.4 °F - 17.6 °F 93% 30.33 in 10.0 mi Calm Calm - N/A   Clear
6:55 AM 19.4 °F - 17.6 °F 93% 30.33 in 10.0 mi Calm Calm - N/A   Clear
7:15 AM 19.4 °F - 15.8 °F 86% 30.34 in 10.0 mi Calm Calm - N/A   Clear
7:35 AM 19.4 °F - 17.6 °F 93% 30.34 in 10.0 mi Calm Calm - N/A   Clear
7:55 AM 23.0 °F - 19.4 °F 86% 30.35 in 10.0 mi Calm Calm - N/A   Clear
8:15 AM 26.6 °F - 17.6 °F 69% 30.35 in 10.0 mi Calm Calm - N/A   Clear
8:35 AM 28.4 °F - 19.4 °F 69% 30.35 in 10.0 mi Calm Calm - N/A   Clear
8:55 AM 32.0 °F - 19.4 °F 60% 30.35 in 10.0 mi Calm Calm - N/A   Clear
9:15 AM 33.8 °F - 14.0 °F 44% 30.36 in 10.0 mi Calm Calm - N/A   Clear
9:35 AM 35.6 °F - 14.0 °F 41% 30.36 in 10.0 mi Calm Calm - N/A   Clear
9:55 AM 39.2 °F 35.9 °F 12.2 °F 33% 30.36 in 10.0 mi West 4.6 mph - N/A   Clear
10:15 AM 41.0 °F 38.0 °F 12.2 °F 31% 30.36 in 10.0 mi West 4.6 mph - N/A   Clear
10:35 AM 42.8 °F 40.1 °F 14.0 °F 31% 30.36 in 10.0 mi West 4.6 mph - N/A   Clear
10:55 AM 42.8 °F 38.0 °F 14.0 °F 31% 30.35 in 10.0 mi WSW 8.1 mph - N/A   Clear
11:15 AM 44.6 °F 42.2 °F 15.8 °F 31% 30.35 in 10.0 mi SW 4.6 mph - N/A   Clear
11:35 AM 46.4 °F 42.9 °F 15.8 °F 29% 30.35 in 10.0 mi South 6.9 mph - N/A   Clear
11:55 AM 46.4 °F 43.5 °F 15.8 °F 29% 30.34 in 10.0 mi SSE 5.8 mph - N/A   Clear
12:15 PM 48.2 °F - 17.6 °F 30% 30.33 in 10.0 mi South 3.5 mph - N/A   Clear
12:35 PM 50.0 °F - 17.6 °F 28% 30.32 in 10.0 mi South 8.1 mph - N/A   Clear
12:55 PM 50.0 °F - 17.6 °F 28% 30.31 in 10.0 mi South 5.8 mph - N/A   Clear
1:15 PM 51.8 °F - 19.4 °F 28% 30.29 in 10.0 mi SSW 4.6 mph - N/A   Clear
1:35 PM 51.8 °F - 19.4 °F 28% 30.28 in 10.0 mi South 6.9 mph - N/A   Clear
1:55 PM 51.8 °F - 19.4 °F 28% 30.28 in 10.0 mi SW 6.9 mph - N/A   Clear
2:15 PM 51.8 °F - 19.4 °F 28% 30.28 in 10.0 mi South 6.9 mph - N/A   Clear
2:35 PM 51.8 °F - 19.4 °F 28% 30.27 in 10.0 mi South 5.8 mph - N/A   Clear
2:55 PM 53.6 °F - 19.4 °F 26% 30.26 in 10.0 mi South 9.2 mph - N/A   Clear
3:15 PM 53.6 °F - 21.2 °F 28% 30.26 in 10.0 mi SSW 6.9 mph - N/A   Clear
3:35 PM 51.8 °F - 21.2 °F 30% 30.25 in 10.0 mi South 5.8 mph - N/A   Clear
3:55 PM 53.6 °F - 21.2 °F 28% 30.25 in 10.0 mi South 5.8 mph - N/A   Clear
4:15 PM 53.6 °F - 21.2 °F 28% 30.25 in 10.0 mi SSW 8.1 mph - N/A   Clear
4:35 PM 53.6 °F - 21.2 °F 28% 30.25 in 10.0 mi South 6.9 mph - N/A   Clear
4:55 PM 51.8 °F - 21.2 °F 30% 30.25 in 10.0 mi South 8.1 mph - N/A   Clear
5:15 PM 51.8 °F - 21.2 °F 30% 30.24 in 10.0 mi SSW 5.8 mph - N/A   Clear
5:35 PM 51.8 °F - 21.2 °F 30% 30.25 in 10.0 mi SSW 5.8 mph - N/A   Clear
5:55 PM 50.0 °F - 21.2 °F 32% 30.24 in 10.0 mi South 6.9 mph - N/A   Clear
6:15 PM 48.2 °F - 21.2 °F 34% 30.24 in 10.0 mi Calm Calm - N/A   Clear
6:35 PM 46.4 °F - 23.0 °F 40% 30.24 in 10.0 mi Calm Calm - N/A   Clear
6:55 PM 44.6 °F - 23.0 °F 43% 30.24 in 10.0 mi Calm Calm - N/A   Clear
7:15 PM 44.6 °F - 23.0 °F 43% 30.24 in 10.0 mi Calm Calm - N/A   Clear
7:35 PM 42.8 °F - 23.0 °F 46% 30.24 in 10.0 mi Calm Calm - N/A   Clear
7:55 PM 42.8 °F - 23.0 °F 46% 30.24 in 10.0 mi Calm Calm - N/A   Clear
8:15 PM 42.8 °F 41.1 °F 23.0 °F 46% 30.23 in 10.0 mi SSW 3.5 mph - N/A   Clear
8:35 PM 42.8 °F 41.1 °F 23.0 °F 46% 30.22 in 10.0 mi SW 3.5 mph - N/A   Clear
8:55 PM 42.8 °F 41.1 °F 23.0 °F 46% 30.22 in 10.0 mi SW 3.5 mph - N/A   Clear
9:15 PM 42.8 °F - 23.0 °F 46% 30.22 in 10.0 mi Calm Calm - N/A   Clear
9:35 PM 41.0 °F 38.0 °F 24.8 °F 53% 30.22 in 10.0 mi SSW 4.6 mph - N/A   Clear
9:55 PM 41.0 °F 38.0 °F 24.8 °F 53% 30.22 in 10.0 mi SW 4.6 mph - N/A   Clear
10:15 PM 41.0 °F 38.0 °F 24.8 °F 53% 30.23 in 10.0 mi SSW 4.6 mph - N/A   Clear
10:35 PM 41.0 °F 38.0 °F 24.8 °F 53% 30.22 in 10.0 mi SSW 4.6 mph - N/A   Clear
10:55 PM 39.2 °F 37.0 °F 24.8 °F 56% 30.21 in 10.0 mi SSW 3.5 mph - N/A   Clear
11:15 PM 39.2 °F 35.9 °F 24.8 °F 56% 30.19 in 10.0 mi South 4.6 mph - N/A   Clear
11:35 PM 39.2 °F 35.9 °F 24.8 °F 56% 30.21 in 10.0 mi SSW 4.6 mph - N/A   Clear
11:55 PM 37.4 °F 34.9 °F 24.8 °F 60% 30.21 in 10.0 mi SSW 3.5 mph - N/A   Clear